Current weather by "City, St" or "zip code"  
 

Current Conditions: Roanoke, Roanoke Regional Airport, VA

Overcast


51.0 F

Last Updated on Oct 26 2020, 6:54 am EDT
Humidity: 89%
Wind Speed: N 4.6 mph
Barometer 30.17 in
Dewpoint: 48.0 F
Visibility: 10.00 mi
Precip: --
Heat Index: NA
Wind Chill: 50 F
Current conditions at:

Roanoke, Roanoke Regional Airport, VA (KROA)

Lat: 37.31694 Lon: 79.97417

Local Radar Image active severe weather and emergency alerts image image weather storm and storm spotter reports image weather observation monitoring service image
Local
Radar
Active
Alerts
Storm Reports Obs
Monitoring

Sign-up For Email & Text Message Weather Alert Notification Services



Advertise Here

Observation History for Roanoke, Roanoke Regional Airport, VA


Time Wind
(mph)
Vis
(mi)
Weather Precip (in) Temperature (F) Relative
Humidity
Wind
Chill
(F)
Heat
Index
(F)
Pressure
Air Dwpt altimeter
(in)
sea level
(mb)
Rmks
6:54 am EDT N 4.6 10.00 Overcast -- 51.0 48.0 89% 50 NA 30.17 1021.7
5:54 am EDT N 3.5 10.00 Overcast -- 51.0 48.0 89% NA NA 30.16 1021.2
4:54 am EDT N 3.5 10.00 Overcast -- 51.0 48.9 92% NA NA 30.15 1020.8
3:54 am EDT NE 3.5 10.00 Overcast -- 50.0 48.0 93% NA NA 30.16 1021.1
2:54 am EDT NE 5.8 10.00 Overcast -- 50.0 48.0 93% 48 NA 30.17 1021.7
1:54 am EDT NE 5.8 10.00 Overcast -- 50.0 48.0 93% 48 NA 30.17 1021.6
12:54 am EDT N 8.1 10.00 Overcast -- 50.0 46.9 89% 47 NA 30.18 1022.0
11:54 pm EDT N 5.8 10.00 Overcast -- 51.0 48.0 89% 49 NA 30.18 1021.8
10:54 pm EDT N 4.6 3.00 Overcast -- 51.0 48.9 92% 50 NA 30.19 1022.2
9:54 pm EDT N 0.0 2.00 Fog/Mist -- 51.0 48.9 92% NA NA 30.17 1021.7
8:54 pm EDT S 3.5 2.00 Fog/Mist -- 50.0 48.9 96% NA NA 30.16 1021.4
7:54 pm EDT S 4.6 1.00 Fog/Mist -- 51.0 50.0 96% 50 NA 30.16 1021.3
6:54 pm EDT SE 5.8 1.00 Fog/Mist -- 51.0 48.9 92% 49 NA 30.14 1020.4
5:54 pm EDT S 5.8 1.00 Fog/Mist -- 51.0 50.0 96% 49 NA 30.13 1020.3
4:54 pm EDT SE 4.6 4.00 Fog/Mist -- 51.0 48.9 92% 50 NA 30.12 1019.9
3:54 pm EDT S 4.6 3.00 Fog/Mist -- 51.0 50.0 96% 50 NA 30.13 1019.9
2:54 pm EDT SE 8.1 2.00 Fog/Mist -- 51.0 50.0 96% 48 NA 30.13 1020.1
1:54 pm EDT S 8.1 2.50 Fog/Mist -- 52.0 50.0 93% 49 NA 30.14 1020.3
12:54 pm EDT SE 9.2 3.00 Fog/Mist Trace 52.0 50.0 93% 49 NA 30.16 1020.8
11:54 am EDT S 8.1 10.00 Light Rain -- 53.0 51.1 93% 50 NA 30.16 1020.7
10:54 am EDT SE 9.2 10.00 Light Rain -- 53.0 51.1 93% 50 NA 30.15 1020.6
9:54 am EDT SE 8.1 5.00 Light Rain Fog/Mist -- 53.0 51.1 93% 50 NA 30.15 1020.4
8:54 am EDT SE 10.4 7.00 Light Rain -- 54.0 52.0 93% 51 NA 30.13 1019.7
7:54 am EDT SE 8.1 5.00 Light Rain Fog/Mist -- 56.0 54.0 93% 54 NA 30.10 1018.7

Regional Weather Observation


Lewisburg / Greenbrier, WV (KLWB)

Overcast
51.0 F

Roanoke, Roanoke Regional Airport, VA (KROA)

Overcast
51.0 F

Dublin / New River Valley, VA (KPSK)

Overcast
49.0 F

Hot Springs / Ingalls, VA (KHSP)

Fog
53.0 F

Lynchburg, Lynchburg Regional Airport, VA (KLYH)

Fog/Mist
51.0 F

Beckley, Raleigh County Memorial Airport, WV (KBKW)

Overcast
54.0 F